TimeCDT,TemperatureF,Dew PointF,Humidity,Sea Level PressureIn,VisibilityMPH,Wind Direction,Wind SpeedMPH,Gust SpeedMPH,PrecipitationIn,Events,Conditions,WindDirDegrees,DateUTC
12:58 AM,80.2,75.4,85,30.10,10.0,SSW,6.9,-,N/A,,Partly Cloudy,210,2013-07-10 05:58:00
1:58 AM,80.2,76.1,87,30.09,10.0,SW,5.8,-,N/A,,Scattered Clouds,230,2013-07-10 06:58:00
2:33 AM,80.6,77.0,89,30.08,10.0,WSW,3.5,-,N/A,,Mostly Cloudy,250,2013-07-10 07:33:00
2:48 AM,80.6,77.0,89,30.08,10.0,WSW,4.6,-,N/A,,Mostly Cloudy,250,2013-07-10 07:48:00
2:53 AM,80.6,77.0,89,30.08,10.0,West,4.6,-,N/A,,Scattered Clouds,260,2013-07-10 07:53:00
2:58 AM,80.4,76.1,87,30.09,10.0,West,4.6,-,N/A,,Mostly Cloudy,260,2013-07-10 07:58:00
3:03 AM,80.6,77.0,89,30.08,10.0,Variable,2.3,-,N/A,,Scattered Clouds,0,2013-07-10 08:03:00
3:58 AM,78.6,76.3,92,30.10,10.0,Calm,Calm,-,N/A,,Partly Cloudy,0,2013-07-10 08:58:00
4:58 AM,77.2,75.4,94,30.10,10.0,Calm,Calm,-,N/A,,Clear,0,2013-07-10 09:58:00
5:58 AM,77.0,75.6,95,30.11,10.0,Calm,Calm,-,N/A,,Clear,0,2013-07-10 10:58:00
6:58 AM,78.6,76.3,92,30.11,10.0,Calm,Calm,-,N/A,,Clear,0,2013-07-10 11:58:00
7:58 AM,81.9,76.8,85,30.12,10.0,Variable,2.3,-,N/A,,Clear,0,2013-07-10 12:58:00
8:58 AM,83.8,76.3,78,30.13,10.0,West,3.5,-,N/A,,Clear,280,2013-07-10 13:58:00
9:58 AM,86.2,75.4,70,30.12,10.0,Variable,4.6,-,N/A,,Clear,0,2013-07-10 14:58:00
10:58 AM,88.0,74.7,65,30.12,10.0,Variable,2.3,-,N/A,,Clear,0,2013-07-10 15:58:00
11:58 AM,88.3,76.8,69,30.10,10.0,SW,11.5,-,N/A,,Clear,220,2013-07-10 16:58:00
12:58 PM,88.7,76.3,67,30.07,10.0,SW,11.5,-,N/A,,Scattered Clouds,220,2013-07-10 17:58:00
1:58 PM,86.7,77.0,73,30.05,10.0,SW,15.0,-,N/A,,Mostly Cloudy,230,2013-07-10 18:58:00
2:58 PM,85.3,75.6,73,30.04,10.0,WSW,11.5,-,N/A,,Partly Cloudy,240,2013-07-10 19:58:00
3:58 PM,85.1,73.2,67,30.02,10.0,SW,9.2,-,N/A,Thunderstorm,Scattered Clouds,230,2013-07-10 20:58:00
4:05 PM,86.0,71.6,62,30.04,10.0,WSW,6.9,-,N/A,Thunderstorm,Thunderstorm,240,2013-07-10 21:05:00
4:28 PM,84.2,71.6,66,30.04,10.0,Variable,2.3,-,N/A,Thunderstorm,Thunderstorm,0,2013-07-10 21:28:00
4:45 PM,82.4,75.2,79,30.03,10.0,NE,4.6,-,N/A,Thunderstorm,Mostly Cloudy,40,2013-07-10 21:45:00
4:46 PM,82.4,75.2,79,30.03,10.0,NE,4.6,-,N/A,Thunderstorm,Thunderstorm,40,2013-07-10 21:46:00
4:58 PM,81.3,75.7,83,30.04,10.0,North,3.5,-,N/A,Thunderstorm,Thunderstorm,360,2013-07-10 21:58:00
5:07 PM,80.6,75.2,84,30.04,10.0,NNW,6.9,-,N/A,Thunderstorm,Scattered Clouds,330,2013-07-10 22:07:00
5:10 PM,78.8,75.2,89,30.04,10.0,NNW,8.1,-,N/A,Thunderstorm,Thunderstorm,330,2013-07-10 22:10:00
5:11 PM,78.8,75.2,89,30.04,10.0,NNW,6.9,-,N/A,Rain-Thunderstorm,Light Thunderstorms and Rain,340,2013-07-10 22:11:00
5:40 PM,75.2,71.6,89,30.02,9.0,NNW,4.6,-,N/A,Rain,Light Rain,340,2013-07-10 22:40:00
5:58 PM,76.3,72.3,87,30.02,10.0,Calm,Calm,-,0.02,,Light Drizzle,0,2013-07-10 22:58:00
6:18 PM,75.2,71.6,89,30.02,10.0,NNW,4.6,-,N/A,,Clear,330,2013-07-10 23:18:00
6:58 PM,77.4,73.6,88,30.01,10.0,Calm,Calm,-,0.01,,Clear,0,2013-07-10 23:58:00
7:58 PM,77.5,74.3,90,30.00,10.0,Calm,Calm,-,N/A,,Clear,0,2013-07-11 00:58:00
8:58 PM,78.3,74.7,89,30.00,10.0,North,1.2,-,N/A,,Scattered Clouds,350,2013-07-11 01:58:00
9:58 PM,77.2,74.3,91,30.01,10.0,Calm,Calm,-,N/A,,Partly Cloudy,0,2013-07-11 02:58:00
10:58 PM,77.2,74.8,92,30.00,10.0,Calm,Calm,-,N/A,,Clear,0,2013-07-11 03:58:00
11:58 PM,80.4,76.6,88,29.99,10.0,SW,10.4,-,N/A,,Clear,230,2013-07-11 04:58:00